Location: Newark
(42.7133°N, 87.7910°W)
Time: 02:54:35
(UTC+00:00)

A-11 Canister half - Pass Details

Date: 25 September 2019
Orbit: 1527 x 1682 km, 47.3° (Epoch: 22 October)

Event Time Altitude Azimuth Distance (km) Brightness Sun altitude
Exits shadow 06:36:53 17° 93° (E) 3,222 10.7 -46.3°
Drops below altitude 10° 06:39:23 10° 80° (E) 3,739 11.2 -46.2°
Sets 06:43:16 0° 68° (ENE) 4,747 12.0 -45.9°
